Regional Weather Roundup
Issued by NWS

Home | Current Version | Previous Version | Graphics & Text | Print | Product List | Glossary On
Versions: 1 2 3 4 5 6 7 8 9 10 11 12 13 14 15 16 17 18 19 20 21 22 23 24 25 26 27 28 29 30 31 32 33 34 35 36 37 38 39 40 41 42 43 44 45 46 47 48 49 50
000
ASUS43 KBIS 040010
RWRND

NORTH DAKOTA REGIONAL WEATHER ROUNDUP
NATIONAL WEATHER SERVICE BISMARCK ND
700 PM CDT MON AUG 03 2015

NOTE: "FAIR" INDICATES FEW OR NO CLOUDS BELOW 12,000 FEET WITH NO
SIGNIFICANT WEATHER AND/OR OBSTRUCTIONS TO VISIBILITY.


NDZ001>003-009>011-017-040100-
NORTHWEST NORTH DAKOTA

CITY           SKY/WX    TMP DP  RH WIND       PRES   REMARKS
WILLISTON      SUNNY     84  41  21 E6        29.94F
6HR MIN TEMP:  76; 6HR MAX TEMP:  86;

MINOT          SUNNY     77  44  30 N10       29.95F
MINOT AFB      SUNNY     80  47  31 CALM      29.94F
$$

NDZ018>021-031>035-040>046-040100-
SOUTHWEST NORTH DAKOTA

CITY           SKY/WX    TMP DP  RH WIND       PRES   REMARKS
BISMARCK       SUNNY     80  48  32 N6        29.95F
6HR MIN TEMP:  76; 6HR MAX TEMP:  83;

DICKINSON      SUNNY     81  49  32 NE8       29.95F
GARRISON         N/A     78  49  35 NE5       29.96F
6HR MIN TEMP:  74; 6HR MAX TEMP:  80;

HETTINGER ARPT SUNNY     83  49  30 SE8       29.97F
$$

NDZ004>008-012>016-024-026-027-054-040100-
NORTHEAST NORTH DAKOTA

CITY           SKY/WX    TMP DP  RH WIND       PRES   REMARKS
GRAND FORKS    MOSUNNY   77  47  34 N8        29.90F
GRND FRKS AFB  SUNNY     75  49  39 N9        29.91F
DEVILS LAKE    SUNNY     75  41  29 N9        29.94S
$$

NDZ022-023-025-028>030-036>039-047>053-040100-
SOUTHEAST NORTH DAKOTA

CITY           SKY/WX    TMP DP  RH WIND       PRES   REMARKS
FARGO          SUNNY     78  45  30 NW13      29.92S
6HR MIN TEMP:  77; 6HR MAX TEMP:  80;

JAMESTOWN      SUNNY     76  48  37 N5        29.95S
$$




USA.gov is the U.S. government's official web portal to all federal, state and local government web resources and services.